Location: アルンシュタイン
(50.0000°N, 10.0000°E)
Time: 14:53:53
(UTC+02:00)

Vanguard 1 - Pass Details

Date: 17 September 2024
Orbit: 649 x 3825 km, 34.3° (Epoch: 02 October)

Event Time Altitude Azimuth Distance (km) Brightness Sun altitude
Rises 15:58:47 0° 253° (WSW) 5,244 14.7 30.6°
Reaches altitude 10° 16:03:44 10° 240° (WSW) 3,655 14.6 30.0°
Maximum altitude 16:09:48 21° 195° (SSW) 2,217 13.0 29.3°
Drops below altitude 10° 16:14:08 10° 147° (SSE) 2,497 12.3 28.7°
Sets 16:16:46 0° 130° (SE) 3,209 12.6 28.4°
